Powrót do katalogu

CZ-6A DEB

AktywnySSO
NORAD 56638·DEBRIS·🇨🇳 China

Wystrzelony Nov 11, 2022 z Taiyuan Satellite Launch Center

Loading…

Następne Przeloty (najbliższe 24 godziny)

TLE

Starzejące sięSource: Space-Track

Epoka: Sep 10, 2026, 07:38 UTC

1 56638U 22151AFN 26253.31805641  .00000367  00000-0  19658-3 0  9993
2 56638  98.8227 273.1274 0050851 117.0174 243.6205 14.18454647174864

Śledź CZ-6A DEB w czasie rzeczywistym z AllMySat

Download on the App Store